Location: ???? ?????
(30.0052°N, 31.2891°E)
Time: 19:27:47
(UTC+00:00)

ACS3 Solar Sail - Pass Details

Date: 27 September 2024
Orbit: 960 x 1036 km, 97.4° (Epoch: 09 October)

Event Time Altitude Azimuth Distance (km) Brightness Sun altitude
Exits shadow 17:30:08 37° 61° (ENE) 1,558 2.5 -23.5°
Drops below altitude 10° 17:35:23 10° 7° (N) 2,838 4.3 -24.6°
Sets 17:38:04 0° 360° (N) 3,788 5.0 -25.2°
